カタログに戻る

STARLINK-35765

運用中通信VLEO
NORAD 67041·PAYLOAD·🇺🇸 United States

打ち上げ Dec 11, 2025 から Cape Canaveral Space Force Station

Loading…

次のパス (今後24時間)

TLE

最新Source: CelesTrak SupGP

元期: Sep 15, 2026, 02:29 UTC

1 67041C 25294M   26258.10395833 -.00022090  00000+0 -79990-3 0  2584
2 67041  43.0045  48.4177 0001944 269.5708 211.5769 15.27596252    18

AllMySatでSTARLINK-35765をリアルタイム追跡

Download on the App Store